| time (UTC) | temp F | wind direction | speed MPH | gust MPH | rain 1hr in | rain 24hr in | rain mn in | humidity % | barometer mb |
| 20260905214004 | 100 | 115 | 0.0 | 8.0 | 0.00 | 0.00 | 0.00 | 38 | 1011.2 |
| 20260905213504 | 99 | 75 | 1.0 | 8.0 | 0.00 | 0.00 | 0.00 | 38 | 1011.3 |
| 20260905213009 | 100 | 109 | 1.0 | 6.0 | 0.00 | 0.00 | 0.00 | 38 | 1011.4 |
| 20260905212504 | 101 | 171 | 3.0 | 6.0 | 0.00 | 0.00 | 0.00 | 37 | 1011.4 |
| 20260905212004 | 100 | 111 | 0.0 | 7.0 | 0.00 | 0.00 | 0.00 | 38 | 1011.5 |
| 20260905211004 | 101 | 99 | 0.0 | 3.0 | 0.00 | 0.00 | 0.00 | 37 | 1011.6 |
| 20260905210504 | 101 | 96 | 0.0 | 3.0 | 0.00 | 0.00 | 0.00 | 37 | 1011.7 |
| 20260905205504 | 100 | 74 | 2.0 | 5.0 | 0.00 | 0.00 | 0.00 | 37 | 1011.8 |
| 20260905205004 | 100 | 65 | 2.0 | 5.0 | 0.00 | 0.00 | 0.00 | 37 | 1011.9 |
| 20260905204507 | 100 | 70 | 1.0 | 7.0 | 0.00 | 0.00 | 0.00 | 38 | 1011.9 |
| 20260905204007 | 99 | 93 | 2.0 | 7.0 | 0.00 | 0.00 | 0.00 | 38 | 1012.0 |
| 20260905203007 | 100 | 88 | 2.0 | 9.0 | 0.00 | 0.00 | 0.00 | 38 | 1012.1 |
| 20260905202505 | 99 | 66 | 3.0 | 8.0 | 0.00 | 0.00 | 0.00 | 39 | 1012.2 |
| 20260905202004 | 100 | 107 | 1.0 | 7.0 | 0.00 | 0.00 | 0.00 | 39 | 1012.3 |
| 20260905201507 | 100 | 199 | 0.0 | 6.0 | 0.00 | 0.00 | 0.00 | 39 | 1012.3 |
| 20260905201004 | 100 | 227 | 1.0 | 6.0 | 0.00 | 0.00 | 0.00 | 40 | 1012.3 |
| 20260905200504 | 99 | 117 | 1.0 | 7.0 | 0.00 | 0.00 | 0.00 | 40 | 1012.6 |
| 20260905200009 | 99 | 143 | 2.0 | 8.0 | 0.00 | 0.00 | 0.00 | 40 | 1012.6 |
| 20260905195503 | 98 | 98 | 2.0 | 9.0 | 0.00 | 0.00 | 0.00 | 42 | 1012.6 |
| 20260905195004 | 98 | 104 | 3.0 | 11.0 | 0.00 | 0.00 | 0.00 | 41 | 1012.7 |
| 20260905194506 | 98 | 49 | 2.0 | 10.0 | 0.00 | 0.00 | 0.00 | 42 | 1012.7 |
| 20260905194003 | 99 | 60 | 2.0 | 8.0 | 0.00 | 0.00 | 0.00 | 41 | 1012.8 |
| 20260905193503 | 97 | 80 | 2.0 | 11.0 | 0.00 | 0.00 | 0.00 | 42 | 1013.0 |
| 20260905193006 | 97 | 61 | 4.0 | 11.0 | 0.00 | 0.00 | 0.00 | 42 | 1013.1 |
| 20260905192503 | 99 | 107 | 2.0 | 9.0 | 0.00 | 0.00 | 0.00 | 41 | 1013.1 |
| 20260905191507 | 99 | 94 | 0.0 | 8.0 | 0.00 | 0.00 | 0.00 | 42 | 1013.4 |
| 20260905190504 | 98 | 92 | 2.0 | 8.0 | 0.00 | 0.00 | 0.00 | 42 | 1013.5 |
| 20260905190009 | 98 | 52 | 1.0 | 9.0 | 0.00 | 0.00 | 0.00 | 43 | 1013.5 |
| 20260905185503 | 98 | 97 | 3.0 | 9.0 | 0.00 | 0.00 | 0.00 | 42 | 1013.6 |
| 20260905184517 | 97 | 67 | 2.0 | 6.0 | 0.00 | 0.00 | 0.00 | 42 | 1013.8 |
| 20260905184006 | 98 | 105 | 0.0 | 6.0 | 0.00 | 0.00 | 0.00 | 42 | 1013.8 |
| 20260905183504 | 98 | 59 | 1.0 | 7.0 | 0.00 | 0.00 | 0.00 | 44 | 1013.9 |
| 20260905183007 | 97 | 136 | 2.0 | 7.0 | 0.00 | 0.00 | 0.00 | 45 | 1014.0 |
| 20260905182004 | 97 | 98 | 1.0 | 7.0 | 0.00 | 0.00 | 0.00 | 45 | 1014.1 |
| 20260905181507 | 96 | 90 | 2.0 | 8.0 | 0.00 | 0.00 | 0.00 | 45 | 1014.1 |
| 20260905181004 | 96 | 56 | 2.0 | 8.0 | 0.00 | 0.00 | 0.00 | 45 | 1014.2 |
| 20260905180007 | 97 | 192 | 1.0 | 6.0 | 0.00 | 0.00 | 0.00 | 46 | 1014.4 |
| 20260905175502 | 96 | 190 | 0.0 | 6.0 | 0.00 | 0.00 | 0.00 | 46 | 1014.4 |
| 20260905175003 | 96 | 207 | 2.0 | 7.0 | 0.00 | 0.00 | 0.00 | 47 | 1014.6 |
| 20260905174002 | 97 | 101 | 2.0 | 9.0 | 0.00 | 0.00 | 0.00 | 46 | 1014.6 |
| 20260905173502 | 96 | 96 | 0.0 | 6.0 | 0.00 | 0.00 | 0.00 | 48 | 1014.7 |
| 20260905172502 | 95 | 104 | 2.0 | 10.0 | 0.00 | 0.00 | 0.00 | 49 | 1014.8 |
| 20260905172003 | 95 | 20 | 2.0 | 8.0 | 0.00 | 0.00 | 0.00 | 49 | 1014.7 |
| 20260905170009 | 95 | 231 | 0.0 | 5.0 | 0.00 | 0.00 | 0.00 | 47 | 1014.9 |
| 20260905165502 | 95 | 230 | 1.0 | 5.0 | 0.00 | 0.00 | 0.00 | 51 | 1015.0 |
| 20260905165002 | 95 | 215 | 0.0 | 3.0 | 0.00 | 0.00 | 0.00 | 51 | 1015.1 |
| 20260905164506 | 94 | 215 | 0.0 | 3.0 | 0.00 | 0.00 | 0.00 | 50 | 1015.0 |
| 20260905164002 | 93 | 214 | 1.0 | 8.0 | 0.00 | 0.00 | 0.00 | 53 | 1015.0 |
| 20260905162503 | 93 | 220 | 0.0 | 2.0 | 0.00 | 0.00 | 0.00 | 52 | 1015.0 |
| 20260905162004 | 93 | 219 | 0.0 | 4.0 | 0.00 | 0.00 | 0.00 | 52 | 1015.0 |
| 20260905161506 | 93 | 219 | 1.0 | 4.0 | 0.00 | 0.00 | 0.00 | 52 | 1015.1 |
| 20260905161002 | 92 | 252 | 0.0 | 3.0 | 0.00 | 0.00 | 0.00 | 55 | 1015.0 |
| 20260905160502 | 92 | 252 | 0.0 | 3.0 | 0.00 | 0.00 | 0.00 | 53 | 1015.0 |
| 20260905160008 | 92 | 252 | 0.0 | 3.0 | 0.00 | 0.00 | 0.00 | 51 | 1015.1 |
| 20260905155002 | 91 | 252 | 1.0 | 4.0 | 0.00 | 0.00 | 0.00 | 54 | 1015.1 |
| 20260905154505 | 91 | 250 | 0.0 | 3.0 | 0.00 | 0.00 | 0.00 | 57 | 1015.2 |
| 20260905153502 | 91 | 245 | 0.0 | 4.0 | 0.00 | 0.00 | 0.00 | 56 | 1015.1 |
| 20260905152002 | 89 | 258 | 0.0 | 7.0 | 0.00 | 0.00 | 0.00 | 60 | 1015.0 |
| 20260905151506 | 89 | 258 | 0.0 | 7.0 | 0.00 | 0.00 | 0.00 | 61 | 1015.0 |
| 20260905151002 | 89 | 238 | 0.0 | 4.0 | 0.00 | 0.00 | 0.00 | 62 | 1015.0 |
| 20260905150502 | 88 | 238 | 1.0 | 5.0 | 0.00 | 0.00 | 0.00 | 62 | 1014.9 |
| 20260905150008 | 88 | 236 | 1.0 | 5.0 | 0.00 | 0.00 | 0.00 | 63 | 1014.9 |
| 20260905145502 | 88 | 288 | 0.0 | 1.0 | 0.00 | 0.00 | 0.00 | 63 | 1014.9 |
| 20260905145004 | 88 | 288 | 0.0 | 1.0 | 0.00 | 0.00 | 0.00 | 65 | 1014.9 |
| 20260905144506 | 87 | 287 | 0.0 | 3.0 | 0.00 | 0.00 | 0.00 | 65 | 1015.0 |
| 20260905144002 | 87 | 288 | 0.0 | 3.0 | 0.00 | 0.00 | 0.00 | 65 | 1014.9 |
| 20260905143503 | 87 | 288 | 0.0 | 2.0 | 0.00 | 0.00 | 0.00 | 66 | 1015.0 |
| 20260905142502 | 86 | 254 | 0.0 | 5.0 | 0.00 | 0.00 | 0.00 | 67 | 1015.0 |
| 20260905142002 | 86 | 253 | 1.0 | 5.0 | 0.00 | 0.00 | 0.00 | 67 | 1015.0 |
| 20260905141505 | 86 | 254 | 0.0 | 8.0 | 0.00 | 0.00 | 0.00 | 68 | 1015.0 |
| 20260905141002 | 86 | 253 | 1.0 | 8.0 | 0.00 | 0.00 | 0.00 | 68 | 1014.9 |
| 20260905140502 | 86 | 249 | 0.0 | 2.0 | 0.00 | 0.00 | 0.00 | 68 | 1014.9 |
| 20260905135502 | 85 | 249 | 0.0 | 4.0 | 0.00 | 0.00 | 0.00 | 69 | 1015.0 |
| 20260905135001 | 86 | 245 | 0.0 | 1.0 | 0.00 | 0.00 | 0.00 | 69 | 1015.0 |
| 20260905134506 | 86 | 245 | 0.0 | 1.0 | 0.00 | 0.00 | 0.00 | 69 | 1014.8 |
| 20260905133502 | 85 | 245 | 0.0 | 2.0 | 0.00 | 0.00 | 0.00 | 69 | 1014.7 |
| 20260905133006 | 85 | 245 | 0.0 | 0.0 | 0.00 | 0.00 | 0.00 | 70 | 1014.7 |
| 20260905132502 | 85 | 245 | 0.0 | 0.0 | 0.00 | 0.00 | 0.00 | 70 | 1014.7 |
| 20260905131506 | 84 | 245 | 0.0 | 0.0 | 0.00 | 0.00 | 0.00 | 71 | 1014.6 |
| 20260905130502 | 83 | 245 | 0.0 | 0.0 | 0.00 | 0.00 | 0.00 | 74 | 1014.6 |
| 20260905130008 | 81 | 245 | 0.0 | 0.0 | 0.00 | 0.00 | 0.00 | 76 | 1014.6 |
| 20260905125002 | 80 | 245 | 0.0 | 0.0 | 0.00 | 0.00 | 0.00 | 78 | 1014.4 |
| 20260905124505 | 80 | 245 | 0.0 | 0.0 | 0.00 | 0.00 | 0.00 | 79 | 1014.3 |
| 20260905124003 | 79 | 245 | 0.0 | 0.0 | 0.00 | 0.00 | 0.00 | 80 | 1014.3 |
| 20260905123005 | 78 | 245 | 0.0 | 0.0 | 0.00 | 0.00 | 0.00 | 81 | 1014.1 |
| 20260905122503 | 78 | 245 | 0.0 | 0.0 | 0.00 | 0.00 | 0.00 | 81 | 1014.1 |
| 20260905121506 | 78 | 245 | 0.0 | 0.0 | 0.00 | 0.00 | 0.00 | 81 | 1013.9 |
| 20260905121003 | 78 | 245 | 0.0 | 0.0 | 0.00 | 0.00 | 0.00 | 81 | 1013.9 |
| 20260905120502 | 78 | 245 | 0.0 | 0.0 | 0.00 | 0.00 | 0.00 | 81 | 1013.9 |
| 20260905120006 | 77 | 245 | 0.0 | 0.0 | 0.00 | 0.00 | 0.00 | 81 | 1013.9 |
| 20260905115502 | 78 | 245 | 0.0 | 0.0 | 0.00 | 0.00 | 0.00 | 80 | 1013.9 |
| 20260905115001 | 78 | 245 | 0.0 | 0.0 | 0.00 | 0.00 | 0.00 | 80 | 1013.9 |
| 20260905114504 | 78 | 245 | 0.0 | 0.0 | 0.00 | 0.00 | 0.00 | 79 | 1014.0 |
| 20260905114000 | 78 | 245 | 0.0 | 0.0 | 0.00 | 0.00 | 0.00 | 79 | 1013.9 |
| 20260905113501 | 78 | 245 | 0.0 | 0.0 | 0.00 | 0.00 | 0.00 | 79 | 1013.9 |
| 20260905112501 | 78 | 245 | 0.0 | 0.0 | 0.00 | 0.00 | 0.00 | 78 | 1013.8 |
| 20260905112001 | 79 | 245 | 0.0 | 0.0 | 0.00 | 0.00 | 0.00 | 77 | 1013.8 |
| 20260905111510 | 79 | 245 | 0.0 | 0.0 | 0.00 | 0.00 | 0.00 | 77 | 1013.7 |
| 20260905111001 | 79 | 245 | 0.0 | 0.0 | 0.00 | 0.00 | 0.00 | 77 | 1013.6 |
| 20260905110501 | 79 | 245 | 0.0 | 1.0 | 0.00 | 0.00 | 0.00 | 77 | 1013.6 |
| 20260905110008 | 79 | 245 | 0.0 | 1.0 | 0.00 | 0.00 | 0.00 | 77 | 1013.7 |
| 20260905105001 | 79 | 245 | 0.0 | 0.0 | 0.00 | 0.00 | 0.00 | 77 | 1013.9 |
| 20260905104505 | 79 | 245 | 0.0 | 0.0 | 0.00 | 0.00 | 0.00 | 76 | 1013.9 |
| 20260905104001 | 80 | 245 | 0.0 | 0.0 | 0.00 | 0.00 | 0.00 | 76 | 1013.9 |
| 20260905102501 | 80 | 245 | 0.0 | 0.0 | 0.00 | 0.00 | 0.00 | 75 | 1014.0 |
| 20260905102003 | 80 | 245 | 0.0 | 0.0 | 0.00 | 0.00 | 0.00 | 74 | 1014.0 |
| 20260905101505 | 81 | 245 | 0.0 | 0.0 | 0.00 | 0.00 | 0.00 | 74 | 1014.0 |
| 20260905101001 | 81 | 245 | 0.0 | 0.0 | 0.00 | 0.00 | 0.00 | 73 | 1014.0 |
| 20260905100502 | 81 | 245 | 0.0 | 0.0 | 0.00 | 0.00 | 0.00 | 72 | 1013.9 |
| 20260905095502 | 82 | 245 | 0.0 | 0.0 | 0.00 | 0.00 | 0.00 | 72 | 1014.0 |
| 20260905095000 | 82 | 245 | 0.0 | 0.0 | 0.00 | 0.00 | 0.00 | 71 | 1013.9 |
| 20260905094503 | 82 | 245 | 0.0 | 0.0 | 0.00 | 0.00 | 0.00 | 71 | 1013.9 |
| 20260905093500 | 82 | 245 | 0.0 | 1.0 | 0.00 | 0.00 | 0.00 | 70 | 1013.8 |
| 20260905093003 | 82 | 245 | 0.0 | 2.0 | 0.00 | 0.00 | 0.00 | 70 | 1013.8 |
| 20260905092500 | 83 | 245 | 0.0 | 3.0 | 0.00 | 0.00 | 0.00 | 70 | 1013.7 |
| 20260905092000 | 83 | 245 | 0.0 | 2.0 | 0.00 | 0.00 | 0.00 | 70 | 1013.6 |
| 20260905091504 | 83 | 245 | 0.0 | 3.0 | 0.00 | 0.00 | 0.00 | 70 | 1013.6 |
| 20260905091000 | 83 | 245 | 1.0 | 7.0 | 0.00 | 0.00 | 0.00 | 69 | 1013.6 |
| 20260905090501 | 83 | 245 | 0.0 | 7.0 | 0.00 | 0.00 | 0.00 | 69 | 1013.5 |
| 20260905090006 | 83 | 245 | 0.0 | 5.0 | 0.00 | 0.00 | 0.00 | 69 | 1013.6 |
| 20260905084504 | 83 | 245 | 0.0 | 0.0 | 0.00 | 0.00 | 0.00 | 69 | 1013.4 |
| 20260905084000 | 83 | 245 | 0.0 | 2.0 | 0.00 | 0.00 | 0.00 | 68 | 1013.4 |
| 20260905083500 | 83 | 245 | 0.0 | 2.0 | 0.00 | 0.00 | 0.00 | 68 | 1013.4 |
| 20260905083004 | 83 | 245 | 0.0 | 5.0 | 0.00 | 0.00 | 0.00 | 68 | 1013.5 |
| 20260905082500 | 83 | 245 | 0.0 | 5.0 | 0.00 | 0.00 | 0.00 | 68 | 1013.5 |
| 20260905082000 | 83 | 245 | 0.0 | 0.0 | 0.00 | 0.00 | 0.00 | 68 | 1013.5 |
| 20260905081505 | 83 | 245 | 0.0 | 0.0 | 0.00 | 0.00 | 0.00 | 68 | 1013.4 |
| 20260905081000 | 84 | 245 | 0.0 | 1.0 | 0.00 | 0.00 | 0.00 | 67 | 1013.6 |
| 20260905080500 | 84 | 245 | 0.0 | 3.0 | 0.00 | 0.00 | 0.00 | 67 | 1013.5 |
| 20260905080005 | 84 | 245 | 0.0 | 3.0 | 0.00 | 0.00 | 0.00 | 67 | 1013.5 |
| 20260905075500 | 84 | 245 | 0.0 | 1.0 | 0.00 | 0.00 | 0.00 | 66 | 1013.4 |
| 20260905075000 | 84 | 245 | 0.0 | 0.0 | 0.00 | 0.00 | 0.00 | 66 | 1013.4 |
| 20260905074504 | 84 | 245 | 0.0 | 1.0 | 0.00 | 0.00 | 0.00 | 65 | 1013.4 |
| 20260905074001 | 85 | 245 | 0.0 | 2.0 | 0.00 | 0.00 | 0.00 | 65 | 1013.3 |
| 20260905073500 | 85 | 245 | 0.0 | 3.0 | 0.00 | 0.00 | 0.00 | 65 | 1013.4 |
| 20260905073004 | 85 | 245 | 0.0 | 5.0 | 0.00 | 0.00 | 0.00 | 64 | 1013.6 |
| 20260905072500 | 85 | 245 | 2.0 | 8.0 | 0.00 | 0.00 | 0.00 | 64 | 1013.6 |
| 20260905072001 | 85 | 260 | 1.0 | 8.0 | 0.00 | 0.00 | 0.00 | 64 | 1013.6 |
| 20260905071503 | 85 | 234 | 2.0 | 7.0 | 0.00 | 0.00 | 0.00 | 64 | 1013.6 |
| 20260905071000 | 85 | 219 | 0.0 | 3.0 | 0.00 | 0.00 | 0.00 | 64 | 1013.6 |
| 20260905070501 | 85 | 218 | 1.0 | 3.0 | 0.00 | 0.00 | 0.00 | 64 | 1013.7 |
| 20260905070006 | 86 | 219 | 0.0 | 2.0 | 0.00 | 0.00 | 0.00 | 64 | 1013.7 |
| 20260905065500 | 86 | 219 | 0.0 | 2.0 | 0.00 | 0.00 | 0.00 | 63 | 1013.7 |
| 20260905065000 | 86 | 219 | 0.0 | 3.0 | 0.00 | 0.00 | 0.00 | 63 | 1013.6 |
| 20260905064504 | 86 | 219 | 1.0 | 3.0 | 0.00 | 0.00 | 0.00 | 63 | 1013.6 |
| 20260905064000 | 86 | 217 | 0.0 | 5.0 | 0.00 | 0.00 | 0.00 | 63 | 1013.7 |
| 20260905063500 | 86 | 217 | 0.0 | 5.0 | 0.00 | 0.00 | 0.00 | 63 | 1013.7 |
| 20260905063003 | 86 | 227 | 0.0 | 3.0 | 0.00 | 0.00 | 0.00 | 63 | 1013.7 |
| 20260905062500 | 87 | 227 | 0.0 | 4.0 | 0.00 | 0.00 | 0.00 | 63 | 1013.7 |
| 20260905062000 | 87 | 227 | 1.0 | 4.0 | 0.00 | 0.00 | 0.00 | 62 | 1013.7 |
| 20260905061503 | 87 | 227 | 0.0 | 6.0 | 0.00 | 0.00 | 0.00 | 62 | 1013.7 |
| 20260905061000 | 87 | 200 | 0.0 | 5.0 | 0.00 | 0.00 | 0.00 | 62 | 1013.7 |
| 20260905060500 | 87 | 200 | 0.0 | 5.0 | 0.00 | 0.00 | 0.00 | 61 | 1013.7 |
| 20260905060011 | 87 | 200 | 1.0 | 5.0 | 0.00 | 0.00 | 0.00 | 61 | 1013.7 |
| 20260905055506 | 87 | 199 | 0.0 | 3.0 | 0.00 | 0.00 | 0.00 | 61 | 1013.7 |
| 20260905055007 | 87 | 199 | 0.0 | 4.0 | 0.00 | 0.00 | 0.00 | 61 | 1013.6 |
| 20260905054006 | 88 | 199 | 0.0 | 4.0 | 0.00 | 0.00 | 0.00 | 60 | 1013.5 |
| 20260905052506 | 88 | 199 | 0.0 | 3.0 | 0.00 | 0.00 | 0.00 | 59 | 1013.4 |
| 20260905052006 | 88 | 199 | 0.0 | 5.0 | 0.00 | 0.00 | 0.00 | 59 | 1013.4 |
| 20260905051509 | 88 | 199 | 0.0 | 5.0 | 0.00 | 0.00 | 0.00 | 59 | 1013.4 |
| 20260905051006 | 88 | 176 | 0.0 | 3.0 | 0.00 | 0.00 | 0.00 | 58 | 1013.3 |
| 20260905050506 | 89 | 176 | 1.0 | 3.0 | 0.00 | 0.00 | 0.00 | 58 | 1013.3 |
| 20260905050014 | 89 | 175 | 0.0 | 6.0 | 0.00 | 0.00 | 0.00 | 57 | 1013.3 |
| 20260905045505 | 89 | 175 | 1.0 | 6.0 | 0.00 | 0.00 | 0.00 | 57 | 1013.3 |
| 20260905045005 | 89 | 188 | 0.0 | 6.0 | 0.00 | 0.00 | 0.00 | 56 | 1013.4 |
| 20260905044509 | 89 | 171 | 1.0 | 7.0 | 0.00 | 0.00 | 0.00 | 56 | 1013.3 |
| 20260905044005 | 90 | 209 | 1.0 | 7.0 | 0.00 | 0.00 | 0.00 | 56 | 1013.3 |
| 20260905043008 | 90 | 181 | 1.0 | 7.0 | 0.00 | 0.00 | 0.00 | 55 | 1013.3 |
| 20260905042005 | 90 | 190 | 3.0 | 12.0 | 0.00 | 0.00 | 0.00 | 54 | 1013.3 |
| 20260905041508 | 90 | 166 | 1.0 | 6.0 | 0.00 | 0.00 | 0.00 | 54 | 1013.3 |
| 20260905040505 | 90 | 161 | 1.0 | 6.0 | 0.00 | 0.00 | 0.00 | 53 | 1013.4 |
| 20260905040011 | 90 | 140 | 1.0 | 4.0 | 0.00 | 0.00 | 0.00 | 53 | 1013.4 |
| 20260905035506 | 90 | 115 | 0.0 | 4.0 | 0.00 | 0.00 | 0.00 | 53 | 1013.3 |
| 20260905034508 | 90 | 137 | 0.0 | 5.0 | 0.00 | 0.00 | 0.00 | 53 | 1013.3 |
| 20260905033505 | 90 | 155 | 0.0 | 5.0 | 0.00 | 0.00 | 0.00 | 52 | 1013.3 |
| 20260905033008 | 90 | 114 | 0.0 | 3.0 | 0.00 | 0.00 | 0.00 | 52 | 1013.4 |
| 20260905032005 | 90 | 104 | 0.0 | 2.0 | 0.00 | 0.00 | 0.00 | 52 | 1013.2 |
| 20260905031508 | 90 | 107 | 0.0 | 2.0 | 0.00 | 0.00 | 0.00 | 51 | 1013.0 |
| 20260905030505 | 91 | 107 | 0.0 | 4.0 | 0.00 | 0.00 | 0.00 | 51 | 1013.1 |
| 20260905030010 | 91 | 123 | 0.0 | 3.0 | 0.00 | 0.00 | 0.00 | 51 | 1013.1 |
| 20260905025006 | 91 | 103 | 0.0 | 6.0 | 0.00 | 0.00 | 0.00 | 50 | 1013.0 |
| 20260905024508 | 91 | 103 | 0.0 | 3.0 | 0.00 | 0.00 | 0.00 | 50 | 1012.8 |
| 20260905024005 | 91 | 103 | 0.0 | 3.0 | 0.00 | 0.00 | 0.00 | 50 | 1012.7 |
| 20260905023505 | 91 | 113 | 0.0 | 2.0 | 0.00 | 0.00 | 0.00 | 50 | 1012.7 |
| 20260905023008 | 91 | 113 | 0.0 | 2.0 | 0.00 | 0.00 | 0.00 | 50 | 1012.6 |
| 20260905022505 | 92 | 123 | 0.0 | 4.0 | 0.00 | 0.00 | 0.00 | 50 | 1012.5 |
| 20260905022005 | 92 | 141 | 0.0 | 4.0 | 0.00 | 0.00 | 0.00 | 50 | 1012.5 |
| 20260905021510 | 92 | 142 | 0.0 | 8.0 | 0.00 | 0.00 | 0.00 | 50 | 1012.4 |
| 20260905020505 | 92 | 165 | 0.0 | 3.0 | 0.00 | 0.00 | 0.00 | 50 | 1012.2 |
| 20260905020010 | 92 | 165 | 0.0 | 3.0 | 0.00 | 0.00 | 0.00 | 50 | 1012.2 |
| 20260905015506 | 92 | 117 | 0.0 | 3.0 | 0.00 | 0.00 | 0.00 | 50 | 1012.1 |
| 20260905015005 | 92 | 115 | 0.0 | 5.0 | 0.00 | 0.00 | 0.00 | 51 | 1012.0 |
| 20260905014509 | 92 | 123 | 0.0 | 4.0 | 0.00 | 0.00 | 0.00 | 51 | 1011.9 |
| 20260905013505 | 92 | 138 | 1.0 | 4.0 | 0.00 | 0.00 | 0.00 | 52 | 1011.8 |
| 20260905013009 | 92 | 115 | 0.0 | 4.0 | 0.00 | 0.00 | 0.00 | 53 | 1011.9 |
| 20260905012505 | 92 | 90 | 0.0 | 6.0 | 0.00 | 0.00 | 0.00 | 52 | 1011.8 |
| 20260905012005 | 93 | 94 | 0.0 | 6.0 | 0.00 | 0.00 | 0.00 | 52 | 1011.8 |
| 20260905011508 | 93 | 94 | 1.0 | 6.0 | 0.00 | 0.00 | 0.00 | 52 | 1011.6 |
| 20260905011005 | 93 | 133 | 1.0 | 4.0 | 0.00 | 0.00 | 0.00 | 53 | 1011.6 |
| 20260905010505 | 93 | 125 | 0.0 | 3.0 | 0.00 | 0.00 | 0.00 | 52 | 1011.6 |
| 20260905010012 | 93 | 113 | 0.0 | 6.0 | 0.00 | 0.00 | 0.00 | 51 | 1011.6 |
| 20260905005505 | 94 | 126 | 1.0 | 7.0 | 0.00 | 0.00 | 0.00 | 51 | 1011.5 |
| 20260905004509 | 94 | 123 | 0.0 | 9.0 | 0.00 | 0.00 | 0.00 | 51 | 1011.3 |
| 20260905003505 | 94 | 136 | 0.0 | 7.0 | 0.00 | 0.00 | 0.00 | 51 | 1011.3 |
| 20260905003008 | 95 | 132 | 1.0 | 7.0 | 0.00 | 0.00 | 0.00 | 51 | 1011.2 |
| 20260905002505 | 95 | 106 | 1.0 | 7.0 | 0.00 | 0.00 | 0.00 | 50 | 1011.2 |
| 20260905002004 | 95 | 104 | 0.0 | 4.0 | 0.00 | 0.00 | 0.00 | 48 | 1011.1 |
| 20260905001509 | 96 | 94 | 0.0 | 8.0 | 0.00 | 0.00 | 0.00 | 47 | 1011.1 |
| 20260905001006 | 96 | 128 | 0.0 | 7.0 | 0.00 | 0.00 | 0.00 | 46 | 1011.1 |
| 20260905000505 | 97 | 130 | 1.0 | 7.0 | 0.00 | 0.00 | 0.00 | 46 | 1011.1 |
| 20260905000010 | 97 | 114 | 1.0 | 7.0 | 0.00 | 0.00 | 0.00 | 45 | 1011.0 |
| 20260904235504 | 97 | 126 | 1.0 | 7.0 | 0.00 | 0.00 | 0.00 | 44 | 1011.0 |
| 20260904235004 | 97 | 90 | 0.0 | 9.0 | 0.00 | 0.00 | 0.00 | 43 | 1011.0 |
| 20260904234509 | 98 | 118 | 1.0 | 5.0 | 0.00 | 0.00 | 0.00 | 43 | 1011.0 |
| 20260904233504 | 98 | 78 | 2.0 | 8.0 | 0.00 | 0.00 | 0.00 | 42 | 1011.1 |
| 20260904233009 | 98 | 161 | 1.0 | 8.0 | 0.00 | 0.00 | 0.00 | 42 | 1011.0 |
| 20260904232505 | 98 | 141 | 1.0 | 8.0 | 0.00 | 0.00 | 0.00 | 41 | 1011.0 |
| 20260904231006 | 98 | 173 | 0.0 | 5.0 | 0.00 | 0.00 | 0.00 | 42 | 1011.1 |
| 20260904230011 | 98 | 65 | 3.0 | 9.0 | 0.00 | 0.00 | 0.00 | 42 | 1011.1 |
| 20260904225504 | 98 | 186 | 2.0 | 8.0 | 0.00 | 0.00 | 0.00 | 42 | 1011.2 |
| 20260904225004 | 99 | 142 | 2.0 | 8.0 | 0.00 | 0.00 | 0.00 | 41 | 1011.2 |
| 20260904224508 | 99 | 123 | 1.0 | 8.0 | 0.00 | 0.00 | 0.00 | 40 | 1011.2 |
| 20260904224005 | 99 | 98 | 2.0 | 8.0 | 0.00 | 0.00 | 0.00 | 40 | 1011.3 |
| 20260904223505 | 99 | 132 | 2.0 | 10.0 | 0.00 | 0.00 | 0.00 | 40 | 1011.2 |
| 20260904223009 | 99 | 113 | 2.0 | 10.0 | 0.00 | 0.00 | 0.00 | 40 | 1011.2 |
| 20260904222504 | 100 | 63 | 3.0 | 9.0 | 0.00 | 0.00 | 0.00 | 40 | 1011.2 |
| 20260904222004 | 100 | 122 | 1.0 | 7.0 | 0.00 | 0.00 | 0.00 | 39 | 1011.3 |
| 20260904221005 | 100 | 76 | 1.0 | 4.0 | 0.00 | 0.00 | 0.00 | 39 | 1011.3 |
| 20260904220504 | 100 | 129 | 1.0 | 4.0 | 0.00 | 0.00 | 0.00 | 39 | 1011.4 |
| 20260904220011 | 99 | 131 | 1.0 | 4.0 | 0.00 | 0.00 | 0.00 | 41 | 1011.4 |
| 20260904215504 | 98 | 98 | 0.0 | 6.0 | 0.00 | 0.00 | 0.00 | 41 | 1011.4 |
| 20260904215004 | 98 | 146 | 1.0 | 6.0 | 0.00 | 0.00 | 0.00 | 41 | 1011.4 |
| 20260904214509 | 99 | 144 | 1.0 | 8.0 | 0.00 | 0.00 | 0.00 | 41 | 1011.5 |